AFL3107 EKBI-ULLI

Flight info

Callsign AFL3107
Flight time 1h 44m
Altitude 37000
Route ABINO DCT MADAG DCT VEPIP DCT ARMOD DCT VSB DCT NEKET DCT TUTVA DCT KEMET DCT MONUS T653 DITEL/K0854F370 T653 OBANA OBANA1B
Aircraft B738/M-SDE2E3FGHIRWXY/LB1

Departure

Time 2026-05-03 20:46
Airport Billund Airport (EKBI)

Arrival

Time 2026-05-03 22:30
Airport Pulkovo Airport (ULLI)
Time Latitude Longitude Altitude Speed Heading
2026-05-03 20:15 55.74533 9.14881 215 ft 0 kts 357°
2026-05-03 20:35 55.74519 9.14882 243 ft 3 kts
2026-05-03 20:36 55.74495 9.14880 224 ft 3 kts
2026-05-03 20:36 55.74473 9.14872 218 ft 3 kts 22°
2026-05-03 20:36 55.74455 9.14853 218 ft 3 kts 60°
2026-05-03 20:36 55.74450 9.14836 218 ft 0 kts 87°
2026-05-03 20:40 55.74451 9.14843 215 ft 2 kts 87°
2026-05-03 20:41 55.74450 9.14904 215 ft 8 kts 100°
2026-05-03 20:41 55.74412 9.14975 217 ft 11 kts 159°
2026-05-03 20:41 55.74310 9.14989 218 ft 16 kts 175°
2026-05-03 20:41 55.74210 9.15018 220 ft 12 kts 133°
2026-05-03 20:42 55.74199 9.15158 215 ft 12 kts 85°
2026-05-03 20:42 55.74205 9.15310 215 ft 16 kts 86°
2026-05-03 20:42 55.74210 9.15506 215 ft 16 kts 86°
2026-05-03 20:42 55.74217 9.15695 218 ft 15 kts 86°
2026-05-03 20:43 55.74222 9.15894 225 ft 21 kts 86°
2026-05-03 20:43 55.74232 9.16180 215 ft 23 kts 88°
2026-05-03 20:43 55.74242 9.16475 215 ft 27 kts 87°
2026-05-03 20:43 55.74251 9.16800 219 ft 25 kts 86°
2026-05-03 20:44 55.74213 9.16902 215 ft 8 kts 173°
2026-05-03 20:44 55.74195 9.16905 218 ft 0 kts 174°
2026-05-03 20:44 55.74190 9.16906 219 ft 5 kts 174°
2026-05-03 20:44 55.74102 9.16878 221 ft 18 kts 220°
2026-05-03 20:45 55.74082 9.16711 221 ft 12 kts 268°
2026-05-03 20:45 55.74068 9.16248 218 ft 79 kts 267°
2026-05-03 20:45 55.74027 9.14788 216 ft 154 kts 267°
2026-05-03 20:45 55.73968 9.12570 521 ft 195 kts 268°
2026-05-03 20:46 55.73907 9.10138 1605 ft 197 kts 275°
2026-05-03 20:46 55.74530 9.07941 2359 ft 213 kts 316°
2026-05-03 20:46 55.75962 9.06890 2632 ft 239 kts 359°
2026-05-03 20:46 55.77548 9.07771 3187 ft 252 kts 33°
2026-05-03 20:47 55.78871 9.09873 3878 ft 259 kts 49°
2026-05-03 20:47 55.79999 9.12398 4601 ft 263 kts 52°
2026-05-03 20:47 55.81123 9.15007 5342 ft 265 kts 52°
2026-05-03 20:47 55.82284 9.17624 5981 ft 276 kts 51°
2026-05-03 20:48 55.83547 9.20376 6503 ft 294 kts 50°
2026-05-03 20:48 55.84877 9.23213 7256 ft 303 kts 50°
2026-05-03 20:48 55.86253 9.26119 8089 ft 306 kts 49°
2026-05-03 20:48 55.87539 9.29069 9066 ft 307 kts 61°
2026-05-03 20:49 55.88234 9.32663 9912 ft 309 kts 78°
2026-05-03 20:49 55.88729 9.36464 10417 ft 325 kts 79°
2026-05-03 20:49 55.89248 9.40573 10602 ft 352 kts 79°
2026-05-03 20:49 55.89805 9.44969 10784 ft 375 kts 78°
2026-05-03 20:50 55.90403 9.49633 10960 ft 397 kts 78°
2026-05-03 20:50 55.91035 9.54509 11366 ft 408 kts 78°
2026-05-03 20:50 55.91682 9.59475 11983 ft 413 kts 78°
2026-05-03 20:50 55.92334 9.64479 12683 ft 416 kts 78°
2026-05-03 20:51 55.92983 9.69467 13320 ft 420 kts 78°
2026-05-03 20:51 55.93645 9.74575 13899 ft 425 kts 78°
2026-05-03 20:51 55.94320 9.79800 14491 ft 428 kts 79°
2026-05-03 20:51 55.94981 9.84936 15086 ft 432 kts 79°
2026-05-03 20:52 55.95654 9.90180 15690 ft 434 kts 79°
2026-05-03 20:52 55.96327 9.95458 16268 ft 438 kts 79°
2026-05-03 20:52 55.97030 10.00773 16828 ft 442 kts 77°
2026-05-03 20:52 55.97985 10.06033 17367 ft 447 kts 72°
2026-05-03 20:53 55.99103 10.11237 17901 ft 451 kts 70°
2026-05-03 20:53 56.00285 10.16459 18392 ft 455 kts 70°
2026-05-03 20:53 56.01477 10.21713 18860 ft 458 kts 70°
2026-05-03 20:53 56.02659 10.27019 19308 ft 461 kts 70°
2026-05-03 20:54 56.03830 10.32388 19697 ft 466 kts 71°
2026-05-03 20:54 56.06134 10.43219 20593 ft 471 kts 71°
2026-05-03 20:54 56.07288 10.48720 21042 ft 473 kts 71°
2026-05-03 20:55 56.08443 10.54255 21479 ft 476 kts 71°
2026-05-03 20:55 56.09603 10.59828 21889 ft 479 kts 71°
2026-05-03 20:55 56.10767 10.65436 22280 ft 482 kts 71°
2026-05-03 20:55 56.11938 10.71084 22691 ft 484 kts 71°
2026-05-03 20:56 56.13110 10.76753 23088 ft 486 kts 71°
2026-05-03 20:56 56.14287 10.82461 23445 ft 490 kts 72°
2026-05-03 20:56 56.15467 10.88201 23760 ft 492 kts 72°
2026-05-03 20:56 56.16655 10.93990 24068 ft 494 kts 72°
2026-05-03 20:57 56.17841 10.99793 24362 ft 497 kts 72°
2026-05-03 20:57 56.19034 11.05643 24662 ft 499 kts 72°
2026-05-03 20:57 56.20229 11.11519 24968 ft 501 kts 72°
2026-05-03 20:57 56.21424 11.17418 25239 ft 504 kts 72°
2026-05-03 20:58 56.22611 11.23292 25513 ft 506 kts 72°
2026-05-03 20:58 56.23811 11.29247 25779 ft 508 kts 72°
2026-05-03 20:58 56.25013 11.35233 26035 ft 510 kts 72°
2026-05-03 20:58 56.26221 11.41265 26295 ft 512 kts 73°
2026-05-03 20:59 56.27428 11.47310 26548 ft 514 kts 73°
2026-05-03 20:59 56.28638 11.53388 26801 ft 515 kts 72°
2026-05-03 20:59 56.29841 11.59447 27176 ft 513 kts 72°
2026-05-03 20:59 56.31041 11.65512 27504 ft 514 kts 73°
2026-05-03 21:00 56.32239 11.71591 27778 ft 515 kts 73°
2026-05-03 21:00 56.33030 11.75615 27983 ft 515 kts 73°
2026-05-03 21:00 56.34616 11.83698 28474 ft 514 kts 73°
2026-05-03 21:00 56.35805 11.89780 28833 ft 513 kts 73°
2026-05-03 21:01 56.36991 11.95854 29201 ft 512 kts 72°
2026-05-03 21:01 56.38358 12.01814 29560 ft 514 kts 68°
2026-05-03 21:01 56.39903 12.07638 29916 ft 514 kts 66°
2026-05-03 21:01 56.41513 12.13414 30210 ft 514 kts 65°
2026-05-03 21:02 56.43140 12.19184 30451 ft 515 kts 65°
2026-05-03 21:02 56.44742 12.24908 30746 ft 515 kts 65°
2026-05-03 21:02 56.46244 12.30351 31036 ft 514 kts 65°
2026-05-03 21:02 56.47823 12.36155 31328 ft 514 kts 65°
2026-05-03 21:03 56.49390 12.41985 31621 ft 515 kts 66°
2026-05-03 21:03 56.50953 12.47852 31787 ft 518 kts 66°
2026-05-03 21:03 56.52496 12.53672 32010 ft 519 kts 66°
2026-05-03 21:03 56.54056 12.59573 32321 ft 518 kts 66°
2026-05-03 21:04 56.55609 12.65461 32644 ft 518 kts 66°
2026-05-03 21:04 56.57161 12.71355 32911 ft 518 kts 66°
2026-05-03 21:04 56.58713 12.77261 33161 ft 519 kts 66°
2026-05-03 21:04 56.60262 12.83168 33437 ft 519 kts 66°
2026-05-03 21:05 56.61813 12.89097 33717 ft 518 kts 66°
2026-05-03 21:05 56.63350 12.94987 34074 ft 515 kts 65°
2026-05-03 21:05 56.64879 13.00862 34382 ft 513 kts 65°
2026-05-03 21:05 56.66402 13.06727 34637 ft 513 kts 65°
2026-05-03 21:06 56.67904 13.12528 34883 ft 513 kts 65°
2026-05-03 21:06 56.69418 13.18394 35143 ft 513 kts 65°
2026-05-03 21:06 56.70934 13.24280 35332 ft 513 kts 65°
2026-05-03 21:06 56.72450 13.30186 35574 ft 513 kts 65°
2026-05-03 21:07 56.73957 13.36068 35877 ft 511 kts 65°
2026-05-03 21:07 56.75452 13.41922 36194 ft 508 kts 65°
2026-05-03 21:07 56.76917 13.47671 36537 ft 505 kts 65°
2026-05-03 21:07 56.78392 13.53473 36848 ft 503 kts 65°
2026-05-03 21:08 56.81342 13.65125 36860 ft 505 kts 65°
2026-05-03 21:08 56.84271 13.76758 36862 ft 502 kts 65°
2026-05-03 21:09 56.87170 13.88332 36865 ft 500 kts 65°
2026-05-03 21:09 56.90047 13.99876 36867 ft 499 kts 65°
2026-05-03 21:10 56.92911 14.11428 36867 ft 498 kts 65°
2026-05-03 21:10 56.95766 14.23006 36867 ft 499 kts 65°
2026-05-03 21:11 56.98596 14.34546 36863 ft 500 kts 66°
2026-05-03 21:11 57.01443 14.46214 36871 ft 501 kts 66°
2026-05-03 21:12 57.04287 14.57929 36867 ft 503 kts 66°
2026-05-03 21:12 57.07123 14.69681 36889 ft 504 kts 66°
2026-05-03 21:13 57.09965 14.81518 36876 ft 506 kts 66°
2026-05-03 21:13 57.12782 14.93314 36865 ft 507 kts 66°
2026-05-03 21:14 57.15611 15.05229 36868 ft 507 kts 66°
2026-05-03 21:14 57.18424 15.17140 36866 ft 507 kts 66°
2026-05-03 21:15 57.21227 15.29076 36862 ft 506 kts 66°
2026-05-03 21:15 57.24000 15.40949 36866 ft 506 kts 66°
2026-05-03 21:16 57.26777 15.52906 36865 ft 507 kts 66°
2026-05-03 21:16 57.29549 15.64909 36865 ft 507 kts 66°
2026-05-03 21:17 57.31837 15.74868 36859 ft 505 kts 66°
2026-05-03 21:17 57.35038 15.88880 36862 ft 505 kts 66°
2026-05-03 21:18 57.37744 16.00797 36866 ft 504 kts 66°
2026-05-03 21:18 57.40454 16.12796 36868 ft 504 kts 67°
2026-05-03 21:19 57.43152 16.24815 36909 ft 504 kts 67°
2026-05-03 21:19 57.45844 16.36876 36879 ft 505 kts 67°
2026-05-03 21:20 57.48507 16.48871 36865 ft 505 kts 67°
2026-05-03 21:20 57.51182 16.60993 36870 ft 506 kts 67°
2026-05-03 21:21 57.53837 16.73095 36868 ft 506 kts 67°
2026-05-03 21:21 57.56498 16.85295 36864 ft 507 kts 67°
2026-05-03 21:22 57.59127 16.97419 36863 ft 507 kts 68°
2026-05-03 21:22 57.61333 17.07647 36862 ft 507 kts 68°
2026-05-03 21:23 57.63941 17.19808 36852 ft 507 kts 68°
2026-05-03 21:23 57.66552 17.32051 36860 ft 507 kts 68°
2026-05-03 21:24 57.69151 17.44313 36858 ft 507 kts 68°
2026-05-03 21:24 57.71724 17.56526 36858 ft 507 kts 68°
2026-05-03 21:25 57.74302 17.68838 36857 ft 507 kts 68°
2026-05-03 21:25 57.76864 17.81142 36858 ft 507 kts 68°
2026-05-03 21:26 57.79400 17.93404 36859 ft 508 kts 68°
2026-05-03 21:26 57.81946 18.05781 36860 ft 508 kts 68°
2026-05-03 21:27 57.84479 18.18174 36857 ft 509 kts 68°
2026-05-03 21:27 57.87001 18.30592 36859 ft 509 kts 68°
2026-05-03 21:28 57.89511 18.43027 36858 ft 509 kts 69°
2026-05-03 21:28 57.92014 18.55507 36860 ft 510 kts 69°
2026-05-03 21:29 57.94490 18.67929 36886 ft 509 kts 68°
2026-05-03 21:29 57.96969 18.80445 36865 ft 510 kts 68°
2026-05-03 21:30 57.99437 18.92982 36856 ft 510 kts 69°
2026-05-03 21:30 58.01881 19.05477 36862 ft 510 kts 69°
2026-05-03 21:31 58.04329 19.18073 36863 ft 510 kts 69°
2026-05-03 21:31 58.06761 19.30672 36859 ft 510 kts 69°
2026-05-03 21:32 58.09183 19.43299 36852 ft 510 kts 69°
2026-05-03 21:32 58.11574 19.55847 36869 ft 510 kts 69°
2026-05-03 21:33 58.13969 19.68495 36862 ft 510 kts 69°
2026-05-03 21:33 58.16351 19.81153 36862 ft 510 kts 69°
2026-05-03 21:34 58.18704 19.93749 36864 ft 510 kts 69°
2026-05-03 21:34 58.21056 20.06417 36862 ft 509 kts 69°
2026-05-03 21:35 58.23401 20.19134 36850 ft 509 kts 69°
2026-05-03 21:35 58.25725 20.31827 36866 ft 509 kts 69°
2026-05-03 21:36 58.28041 20.44554 36869 ft 509 kts 69°
2026-05-03 21:36 58.30339 20.57287 36869 ft 509 kts 70°
2026-05-03 21:37 58.32126 20.70348 36876 ft 510 kts 76°
2026-05-03 21:37 58.33591 20.83486 36869 ft 510 kts 77°
2026-05-03 21:38 58.35070 20.96732 36857 ft 510 kts 76°
2026-05-03 21:38 58.36579 21.09860 36863 ft 510 kts 76°
2026-05-03 21:39 58.38105 21.23052 36869 ft 509 kts 76°
2026-05-03 21:39 58.39620 21.36268 36886 ft 510 kts 76°
2026-05-03 21:40 58.41110 21.49420 36870 ft 510 kts 76°
2026-05-03 21:40 58.42594 21.62664 36865 ft 510 kts 76°
2026-05-03 21:41 58.44064 21.75925 36864 ft 510 kts 76°
2026-05-03 21:41 58.45519 21.89183 36868 ft 510 kts 76°
2026-05-03 21:42 58.46959 22.02435 36868 ft 510 kts 77°
2026-05-03 21:42 58.48377 22.15620 36872 ft 510 kts 77°
2026-05-03 21:43 58.49792 22.28917 36866 ft 510 kts 77°
2026-05-03 21:43 58.51192 22.42207 36869 ft 510 kts 77°
2026-05-03 21:44 58.52579 22.55519 36869 ft 510 kts 77°
2026-05-03 21:44 58.53954 22.68867 36868 ft 510 kts 77°
2026-05-03 21:45 58.55306 22.82121 36868 ft 510 kts 77°
2026-05-03 21:45 58.56655 22.95498 36866 ft 510 kts 77°
2026-05-03 21:46 58.57987 23.08859 36868 ft 510 kts 77°
2026-05-03 21:46 58.59301 23.22159 36862 ft 509 kts 77°
2026-05-03 21:47 58.60616 23.35519 36867 ft 509 kts 77°
2026-05-03 21:47 58.61931 23.48785 36864 ft 509 kts 77°
2026-05-03 21:48 58.63242 23.62140 36861 ft 509 kts 77°
2026-05-03 21:48 58.64537 23.75511 36867 ft 508 kts 77°
2026-05-03 21:49 58.65806 23.88786 36867 ft 508 kts 77°
2026-05-03 21:49 58.67067 24.02137 36868 ft 507 kts 77°
2026-05-03 21:50 58.68315 24.15498 36855 ft 507 kts 77°
2026-05-03 21:50 58.69546 24.28832 36859 ft 506 kts 77°
2026-05-03 21:51 58.70762 24.42161 36856 ft 506 kts 78°
2026-05-03 21:51 58.71968 24.55517 36860 ft 506 kts 78°
2026-05-03 21:52 58.73121 24.68887 36843 ft 506 kts 79°
2026-05-03 21:52 58.74197 24.82278 36851 ft 506 kts 79°
2026-05-03 21:53 58.75252 24.95591 36854 ft 505 kts 79°
2026-05-03 21:53 58.76310 25.08996 36857 ft 505 kts 79°
2026-05-03 21:54 58.77357 25.22387 36853 ft 505 kts 79°
2026-05-03 21:54 58.78391 25.35791 36854 ft 505 kts 79°
2026-05-03 21:55 58.79405 25.49116 36857 ft 505 kts 79°
2026-05-03 21:55 58.80413 25.62566 36857 ft 507 kts 79°
2026-05-03 21:56 58.81408 25.76044 36857 ft 507 kts 80°
2026-05-03 21:56 58.82391 25.89547 36851 ft 507 kts 80°
2026-05-03 21:57 58.83353 26.02961 36851 ft 508 kts 80°
2026-05-03 21:57 58.84307 26.16470 36841 ft 508 kts 80°
2026-05-03 21:58 58.85246 26.29986 36847 ft 507 kts 80°
2026-05-03 21:58 58.86170 26.43478 36851 ft 506 kts 81°
2026-05-03 21:59 58.87079 26.56970 36846 ft 506 kts 81°
2026-05-03 21:59 58.87968 26.70383 36848 ft 506 kts 81°
2026-05-03 22:00 58.88849 26.83883 36849 ft 505 kts 81°
2026-05-03 22:00 58.89716 26.97396 36839 ft 505 kts 81°
2026-05-03 22:01 58.90569 27.10887 36853 ft 504 kts 81°
2026-05-03 22:01 58.91581 27.24207 36843 ft 502 kts 73°
2026-05-03 22:02 58.94106 27.36692 36356 ft 500 kts 58°
2026-05-03 22:02 58.95748 27.42606 35764 ft 497 kts 57°
2026-05-03 22:02 58.97414 27.48496 35064 ft 497 kts 57°
2026-05-03 22:03 58.99059 27.54402 34385 ft 498 kts 57°
2026-05-03 22:03 59.00681 27.60354 33592 ft 501 kts 57°
2026-05-03 22:03 59.02290 27.66366 32766 ft 502 kts 57°
2026-05-03 22:03 59.03893 27.72399 31942 ft 502 kts 57°
2026-05-03 22:04 59.05520 27.78428 31103 ft 501 kts 55°
2026-05-03 22:04 59.07292 27.84295 30078 ft 505 kts 52°
2026-05-03 22:04 59.09137 27.90006 29052 ft 505 kts 51°
2026-05-03 22:04 59.11035 27.95766 28057 ft 504 kts 51°
2026-05-03 22:05 59.12923 28.01518 27065 ft 504 kts 52°
2026-05-03 22:05 59.14798 28.07303 26006 ft 506 kts 53°
2026-05-03 22:05 59.16659 28.13120 25229 ft 503 kts 53°
2026-05-03 22:05 59.18488 28.18896 24443 ft 499 kts 54°
2026-05-03 22:06 59.20301 28.24648 23683 ft 496 kts 54°
2026-05-03 22:06 59.22105 28.30384 22829 ft 493 kts 54°
2026-05-03 22:06 59.23893 28.36075 22016 ft 488 kts 55°
2026-05-03 22:06 59.25667 28.41728 21246 ft 483 kts 55°
2026-05-03 22:07 59.27387 28.47230 20507 ft 478 kts 56°
2026-05-03 22:07 59.28865 28.53047 19788 ft 477 kts 66°
2026-05-03 22:07 59.29949 28.59150 19094 ft 472 kts 70°
2026-05-03 22:07 59.30927 28.65266 18354 ft 469 kts 71°
2026-05-03 22:08 59.31881 28.71348 17524 ft 466 kts 71°
2026-05-03 22:08 59.32841 28.77369 16778 ft 460 kts 71°
2026-05-03 22:08 59.33812 28.83311 16022 ft 455 kts 70°
2026-05-03 22:08 59.34792 28.89192 15296 ft 450 kts 70°
2026-05-03 22:09 59.35768 28.94995 14565 ft 445 kts 70°
2026-05-03 22:09 59.36722 29.00649 13880 ft 440 kts 70°
2026-05-03 22:09 59.37678 29.06321 13109 ft 436 kts 70°
2026-05-03 22:10 59.39549 29.17491 11649 ft 426 kts 71°
2026-05-03 22:10 59.40464 29.22981 11020 ft 420 kts 71°
2026-05-03 22:10 59.41349 29.28324 10863 ft 402 kts 71°
2026-05-03 22:10 59.42196 29.33447 10682 ft 387 kts 71°
2026-05-03 22:11 59.42740 29.36743 10576 ft 377 kts 71°
2026-05-03 22:11 59.43533 29.41562 10413 ft 365 kts 71°
2026-05-03 22:11 59.44299 29.46228 10265 ft 353 kts 71°
2026-05-03 22:11 59.45042 29.50757 10114 ft 342 kts 71°
2026-05-03 22:12 59.45757 29.55132 10081 ft 329 kts 71°
2026-05-03 22:12 59.46446 29.59357 9983 ft 319 kts 70°
2026-05-03 22:12 59.47110 29.63435 9777 ft 313 kts 71°
2026-05-03 22:12 59.47775 29.67524 9410 ft 313 kts 71°
2026-05-03 22:13 59.48433 29.71591 9088 ft 311 kts 71°
2026-05-03 22:13 59.49087 29.75642 8779 ft 309 kts 71°
2026-05-03 22:13 59.49733 29.79662 8479 ft 307 kts 71°
2026-05-03 22:13 59.50375 29.83661 8183 ft 305 kts 71°
2026-05-03 22:14 59.51013 29.87635 7880 ft 303 kts 71°
2026-05-03 22:14 59.51634 29.91519 7588 ft 300 kts 71°
2026-05-03 22:14 59.52266 29.95481 7304 ft 298 kts 71°
2026-05-03 22:14 59.52878 29.99371 7032 ft 296 kts 73°
2026-05-03 22:15 59.53126 30.03287 6914 ft 288 kts 90°
2026-05-03 22:15 59.53115 30.07211 6836 ft 286 kts 91°
2026-05-03 22:15 59.53094 30.11124 6759 ft 286 kts 90°
2026-05-03 22:15 59.53080 30.15058 6668 ft 288 kts 90°
2026-05-03 22:16 59.53074 30.19024 6588 ft 291 kts 90°
2026-05-03 22:16 59.53074 30.23006 6500 ft 291 kts 90°
2026-05-03 22:16 59.53076 30.26992 6408 ft 291 kts 90°
2026-05-03 22:16 59.53081 30.30968 6318 ft 290 kts 90°
2026-05-03 22:17 59.53087 30.34936 6232 ft 290 kts 90°
2026-05-03 22:17 59.53091 30.38898 6143 ft 289 kts 90°
2026-05-03 22:17 59.53093 30.42856 6042 ft 289 kts 90°
2026-05-03 22:17 59.53095 30.46811 5967 ft 288 kts 90°
2026-05-03 22:18 59.53095 30.50758 5867 ft 288 kts 90°
2026-05-03 22:18 59.53094 30.54698 5768 ft 288 kts 90°
2026-05-03 22:18 59.53093 30.58640 5687 ft 288 kts 90°
2026-05-03 22:18 59.53090 30.62575 5580 ft 284 kts 90°
2026-05-03 22:19 59.53085 30.66410 5462 ft 276 kts 90°
2026-05-03 22:19 59.53080 30.70131 5370 ft 267 kts 90°
2026-05-03 22:19 59.53075 30.73744 5280 ft 260 kts 90°
2026-05-03 22:19 59.53068 30.77300 5198 ft 260 kts 90°
2026-05-03 22:20 59.53059 30.80867 5029 ft 258 kts 90°
2026-05-03 22:20 59.53050 30.84360 4818 ft 252 kts 90°
2026-05-03 22:20 59.53291 30.87671 4492 ft 245 kts 63°
2026-05-03 22:20 59.54251 30.90383 4201 ft 233 kts 42°
2026-05-03 22:21 59.55587 30.91878 3852 ft 215 kts
2026-05-03 22:21 59.57021 30.91508 3586 ft 208 kts 334°
2026-05-03 22:21 59.58247 30.90073 3360 ft 203 kts 314°
2026-05-03 22:21 59.59154 30.87999 3261 ft 208 kts 304°
2026-05-03 22:22 59.60034 30.85644 3162 ft 216 kts 303°
2026-05-03 22:22 59.60917 30.83254 3042 ft 214 kts 304°
2026-05-03 22:22 59.61798 30.80881 2999 ft 216 kts 304°
2026-05-03 22:22 59.62720 30.78407 3016 ft 231 kts 304°
2026-05-03 22:23 59.63693 30.75803 3002 ft 238 kts 304°
2026-05-03 22:23 59.64674 30.73182 2993 ft 233 kts 304°
2026-05-03 22:23 59.65608 30.70692 2949 ft 216 kts 304°
2026-05-03 22:23 59.66470 30.68399 2839 ft 200 kts 306°
2026-05-03 22:24 59.67485 30.66654 2755 ft 190 kts 324°
2026-05-03 22:24 59.68578 30.65209 2691 ft 188 kts 322°
2026-05-03 22:24 59.69650 30.63729 2584 ft 189 kts 322°
2026-05-03 22:24 59.70710 30.62257 2522 ft 189 kts 322°
2026-05-03 22:25 59.71790 30.60754 2500 ft 189 kts 322°
2026-05-03 22:25 59.72850 30.59278 2487 ft 181 kts 322°
2026-05-03 22:25 59.73845 30.57893 2488 ft 169 kts 322°
2026-05-03 22:25 59.74718 30.56371 2477 ft 166 kts 298°
2026-05-03 22:26 59.75093 30.54321 2486 ft 152 kts 287°
2026-05-03 22:26 59.75403 30.52419 2487 ft 140 kts 289°
2026-05-03 22:26 59.75718 30.50631 2424 ft 136 kts 288°
2026-05-03 22:26 59.76008 30.48809 2245 ft 139 kts 286°
2026-05-03 22:27 59.76287 30.46958 2051 ft 140 kts 286°
2026-05-03 22:27 59.76562 30.45098 1870 ft 140 kts 286°
2026-05-03 22:27 59.76835 30.43238 1684 ft 141 kts 286°
2026-05-03 22:27 59.77109 30.41367 1488 ft 142 kts 285°
2026-05-03 22:28 59.77385 30.39480 1293 ft 142 kts 286°
2026-05-03 22:28 59.77664 30.37581 1089 ft 146 kts 286°
2026-05-03 22:28 59.77950 30.35617 857 ft 149 kts 286°
2026-05-03 22:28 59.78232 30.33640 628 ft 148 kts 285°
2026-05-03 22:29 59.78519 30.31699 447 ft 145 kts 287°
2026-05-03 22:29 59.78805 30.29779 261 ft 143 kts 286°
2026-05-03 22:29 59.79085 30.27892 91 ft 141 kts 287°
2026-05-03 22:29 59.79338 30.26211 86 ft 111 kts 286°
2026-05-03 22:30 59.79519 30.24973 85 ft 76 kts 286°
2026-05-03 22:30 59.79638 30.24197 82 ft 42 kts 287°
2026-05-03 22:30 59.79697 30.23764 81 ft 30 kts 287°
2026-05-03 22:30 59.79770 30.23387 81 ft 28 kts 298°
2026-05-03 22:31 59.79856 30.23149 86 ft 0 kts 313°
2026-05-03 22:32 59.79870 30.23121 82 ft 9 kts 315°
2026-05-03 22:33 59.79937 30.23031 79 ft 12 kts
2026-05-03 22:33 59.79968 30.23150 72 ft 10 kts 95°
2026-05-03 22:33 59.79952 30.23290 76 ft 11 kts 104°
2026-05-03 22:33 59.79915 30.23536 77 ft 23 kts 107°
2026-05-03 22:34 59.79870 30.23841 84 ft 23 kts 106°
2026-05-03 22:34 59.79821 30.24166 83 ft 26 kts 106°
2026-05-03 22:34 59.79772 30.24499 81 ft 24 kts 107°
2026-05-03 22:34 59.79727 30.24809 86 ft 23 kts 105°
2026-05-03 22:35 59.79682 30.25106 86 ft 22 kts 106°
2026-05-03 22:35 59.79640 30.25396 85 ft 21 kts 105°
2026-05-03 22:35 59.79601 30.25656 83 ft 19 kts 107°
2026-05-03 22:35 59.79593 30.25713 85 ft 0 kts 106°
2026-05-03 22:38 59.79592 30.25715 85 ft 1 kts 106°
2026-05-03 22:38 59.79576 30.25824 85 ft 19 kts 107°
2026-05-03 22:38 59.79583 30.25983 84 ft 12 kts 36°
2026-05-03 22:38 59.79667 30.26060 81 ft 14 kts 28°
2026-05-03 22:39 59.79757 30.26122 85 ft 13 kts 15°
2026-05-03 22:39 59.79831 30.26165 86 ft 3 kts 17°
2026-05-03 22:39 59.79855 30.26180 81 ft 4 kts 17°
2026-05-03 22:39 59.79878 30.26190 81 ft 3 kts
2026-05-03 22:40 59.79889 30.26189 86 ft 0 kts 14°
2026-05-03 22:41 59.79899 30.26280 86 ft 11 kts 100°
2026-05-03 22:41 59.79884 30.26433 81 ft 11 kts 73°
2026-05-03 22:41 59.79954 30.26503 86 ft 12 kts 17°
2026-05-03 22:41 59.80011 30.26517 84 ft 6 kts 332°
2026-05-03 22:42 59.80029 30.26449 83 ft 4 kts 288°
2026-05-03 22:42 59.80033 30.26425 84 ft 0 kts 286°